Volver al catálogo

NOAA 12 DEB

ActivoSSO
NORAD 38546·DEBRIS·🇺🇸 United States

Lanzado May 14, 1991 desde Vandenberg Space Force Base

Loading…

Próximos Pases (próximas 24 horas)

TLE

ActualizadoSource: Space-Track

Época: Sep 14, 2026, 11:02 UTC

1 38546U 91032F   26257.45985549  .00000690  00000-0  23185-3 0  9999
2 38546  98.3863 247.8569 0011396   9.2570 142.2815 14.40161674772024

Sigue NOAA 12 DEB en tiempo real con AllMySat

Download on the App Store